Weather History for Sioux Falls, SD

Change the Weather History Date:

Tuesday, July 10, 2012

  Actual Average Record
Temperature  
Mean Temperature 72 °F 73 °F  
Max Temperature 87 °F 84 °F 106 °F (1966)
Min Temperature 56 °F 62 °F 43 °F (1996)
Degree Days  
Heating Degree Days 0 0  
Month to date heating degree days 0 0  
Since 1 June heating degree days 21 51  
Since 1 July heating degree days 0 0  
Cooling Degree Days 7 8  
Month to date cooling degree days 164 79  
Year to date cooling degree days 491 250  
Since 1 June cooling degree days 405 214  
Growing Degree Days 21 (Base 50)    
Moisture  
Dew Point 54 °F    
Average Humidity 54    
Maximum Humidity 93    
Minimum Humidity 25    
Precipitation  
Precipitation 0.00 in 0.11 in 2.81 in (1993)
Month to date precipitation T 1.04  
Year to date precipitation 11.69 14.29  
Snow  
Snow 0.00 in 0.00 in 0.00 in ()
Month to date snowfall 0.0 0.0  
Since 1 June snowfall 0.0 0.0  
Since 1 July snowfall 0.0 0.0  
Snow Depth 0.00 in    
Sea Level Pressure  
Sea Level Pressure 30.15 in    
Wind  
Wind Speed 4 mph (SE)    
Max Wind Speed 13 mph    
Max Gust Speed 21 mph    
Visibility 10 miles    
Events      
T = Trace of Precipitation, MM = Missing Value Source: NWS Daily Summary

Daily Weather History Graph

Daily Weather History Graph

Search for Another Location

Airport:

Trip Planner

Search our weather history database for the weather conditions in past years. The results will help you decide how hot, cold, wet, or windy it might be!

Date:

Astronomy

Jul. 10, 2012 Rise Set
Actual Time 5:55 AM CDT 9:08 PM CDT
Civil Twilight 5:20 AM CDT 9:43 PM CDT
Nautical Twilight 4:35 AM CDT 10:28 PM CDT
Astronomical Twilight 3:40 AM CDT 11:23 PM CDT
Moon 12:10 AM CDT (7/10) 1:39 PM CDT (7/10)
Length of Visible Light 16h 22m
Length of Day
15h 12m
Waning Gibbous, 54% of the Moon is Illuminated
Jul 10
Waning Gibbous
Jul 10
Last Quarter
Jul 18
New
Jul 26
First Quarter
Aug 1
Full

Hourly Weather History & Observations

Time (CDT) Temp. Heat Index Dew Point Humidity Pressure Visibility Wind Dir Wind Speed Gust Speed Precip Events Conditions
12:56 AM 61.0 °F - 54.0 °F 78% 30.16 in 10.0 mi Calm Calm - N/A   Clear
1:56 AM 61.0 °F - 55.0 °F 81% 30.16 in 10.0 mi Calm Calm - N/A   Clear
2:56 AM 59.0 °F - 54.0 °F 83% 30.17 in 10.0 mi Calm Calm - N/A   Clear
3:56 AM 57.9 °F - 54.0 °F 87% 30.17 in 10.0 mi Calm Calm - N/A   Clear
4:56 AM 57.0 °F - 54.0 °F 89% 30.17 in 10.0 mi Calm Calm - N/A   Clear
5:56 AM 57.0 °F - 55.0 °F 93% 30.17 in 10.0 mi Calm Calm - N/A   Clear
6:56 AM 60.1 °F - 55.9 °F 86% 30.18 in 10.0 mi Calm Calm - N/A   Clear
7:56 AM 66.9 °F - 57.0 °F 70% 30.19 in 10.0 mi Calm Calm - N/A   Clear
8:56 AM 73.9 °F - 55.9 °F 53% 30.19 in 10.0 mi Calm Calm - N/A   Clear
9:56 AM 79.0 °F - 54.0 °F 42% 30.19 in 10.0 mi Calm Calm - N/A   Clear
10:56 AM 81.0 °F 80.5 °F 54.0 °F 39% 30.18 in 10.0 mi Variable 3.5 mph - N/A   Clear
11:56 AM 82.0 °F - 52.0 °F 35% 30.18 in 10.0 mi Calm Calm - N/A   Partly Cloudy
12:56 PM 82.9 °F 81.8 °F 53.1 °F 36% 30.17 in 10.0 mi Calm Calm - N/A   Partly Cloudy
1:56 PM 84.9 °F - 52.0 °F 32% 30.16 in 10.0 mi Calm Calm - N/A   Partly Cloudy
2:56 PM 84.9 °F 83.2 °F 53.1 °F 33% 30.15 in 10.0 mi Variable 3.5 mph 18.4 mph N/A   Partly Cloudy
3:56 PM 84.9 °F 83.3 °F 54.0 °F 34% 30.13 in 10.0 mi East 10.4 mph - N/A   Scattered Clouds
4:56 PM 86.0 °F 84.2 °F 54.0 °F 33% 30.12 in 10.0 mi East 11.5 mph - N/A   Scattered Clouds
5:56 PM 84.9 °F 83.3 °F 54.0 °F 34% 30.12 in 10.0 mi SE 10.4 mph - N/A   Partly Cloudy
6:56 PM 82.9 °F 81.8 °F 53.1 °F 36% 30.11 in 10.0 mi East 11.5 mph - N/A   Partly Cloudy
7:56 PM 82.0 °F - 51.1 °F 34% 30.09 in 10.0 mi ESE 9.2 mph - N/A   Clear
8:56 PM 79.0 °F - 52.0 °F 39% 30.09 in 10.0 mi SE 8.1 mph - N/A   Clear
9:56 PM 75.0 °F - 54.0 °F 48% 30.09 in 10.0 mi SSE 6.9 mph - N/A   Clear
10:56 PM 73.0 °F - 55.0 °F 53% 30.10 in 10.0 mi South 4.6 mph - N/A   Clear
11:56 PM 72.0 °F - 54.0 °F 53% 30.11 in 10.0 mi SSE 8.1 mph - N/A   Clear